Regional Weather Roundup
Issued by NWS Grand Forks, ND

Home | Current Version | Previous Version | Graphics & Text | Print | Product List | Glossary On
Versions: 1 2 3 4 5 6 7 8 9 10 11 12 13 14 15 16 17 18 19 20 21 22 23 24 25 26 27 28 29 30 31 32 33 34 35 36 37 38 39 40 41 42 43 44 45 46 47 48 49 50
000
ASUS43 KFGF 201710
RWRFGF
PRAIRIE TO PINES  WEATHER ROUNDUP
NATIONAL WEATHER SERVICE EASTERN NORTH DAKOTA/GRAND FORKS ND
1200 PM CDT FRI APR 20 2018

 **SATELLITE DATA USED TO AUGMENT SKY COVER AT AUTOMATED STATIONS**
 *****  WEATHER ACROSS EASTERN NORTH DAKOTA  *****

CITY           SKY/WX    TMP DP  RH WIND       PRES   REMARKS
GRAND FORKS    FAIR      48  36  63 S12       30.41S
GRAND FRKS AFB FAIR      51  35  54 S10       30.40S
GRAND FRKS NWS   N/A     49  36  61 SW12      30.39S
DEVILS LAKE    FAIR      49  23  36 S14       30.37F
FARGO          FAIR      51  28  41 S10       30.42F
WAHPETON ARPT  FAIR      46  30  53 SE10      30.45S
$$

 ***** WEATHER ACROSS CENTRAL AND WESTERN NORTH DAKOTA  *****

CITY           SKY/WX    TMP DP  RH WIND       PRES   REMARKS
BISMARCK       FAIR      53  30  41 SE15      30.30S
MINOT          FAIR      52  29  41 S14       30.28F
JAMESTOWN      FAIR      48  32  53 S15       30.36F
MINOT AFB      NOT AVBL
GARRISON         N/A     46  33  60 SE16      30.27F
WILLISTON      FAIR      53  32  44 SE10      30.20F
DICKINSON      FAIR      52  31  44 SE14G22   30.18F
HETTINGER      FAIR      50  31  48 SE15      30.20F
$$

 *****  OTHER AIRPORT OBSERVATIONS IN OUR AREA  *****

CITY           SKY/WX    TMP DP  RH WIND       PRES   REMARKS
WALHALLA       FAIR      54  36  50 SW7G13    30.37S
GRAFTON AIRPOR FAIR      54  32  43 SW8       30.41F
VALLEY CITY AR FAIR      45  34  65 S9        30.41F
CANDO          FAIR      52  25  35 S12       30.38S
CAVALIER APRT    N/A     52  36  54 VRB3      30.37F
GWINNER          N/A     48  34  57 E8        30.40F
SHEYENNE NWR     N/A     51  21  31 S8        29.95S
ROLLA          FAIR      46  34  61 S9        30.34F
 ***** THE ABOVE OBSERVATIONS ARE NON NWS ARE NOT QUALITY
       CONTROLLED AND MAY MIS-REPORT RAIN FOR SNOW...
$$

  *****  WEATHER ACROSS NORTHERN MINNESOTA  *****

CITY           SKY/WX    TMP DP  RH WIND       PRES   REMARKS
FLAG ISLAND    FAIR      39  28  65 SE8       30.39F
WARROAD        FAIR      54  32  43 S6        30.40F
ROSEAU         FAIR      54  37  54 SW8       30.40F
HALLOCK        FAIR      52  43  71 S9        30.39F
THF RVR FALLS  FAIR      50  28  42 SW8       30.42F
BAUDETTE       FAIR      54  30  40 VRB5      30.40F
WASKISH        FAIR      54  32  43 W3        30.42F
CROOKSTON      FAIR      50  30  46 SW9       30.43S
STEPHEN NDAWN    N/A     50  39  66 S7          N/A
GREENBUSH NDAW   N/A     50  36  57 S8          N/A
$$
  *****  WEATHER ACROSS CENTRAL AND WEST MINNESOTA  *****

CITY           SKY/WX    TMP DP  RH WIND       PRES   REMARKS
FOSSTON        FAIR      52  25  35 W5        30.43S
BEMIDJI        FAIR      52  28  39 S6        30.41F
PARK RAPIDS    FAIR      51  29  42 S5        30.42F
ELBOW LAKE     FAIR      47  26  43 SE9       30.45F
WADENA         FAIR      50  28  43 CALM      30.44S
DETROIT LAKES  FAIR      52  28  40 SW6       30.44S
MOORHEAD       FAIR      48  30  49 S10       30.44F
FERGUS FALLS   FAIR      48  27  43 S9        30.43S
MORRIS MN      FAIR      46  32  57 SE6       30.45S
STAPLES        FAIR      50  25  37 SW5       30.44F
$$
  *****  WEATHER ELSEWHERE ACROSS MINNESOTA  *****

CITY           SKY/WX    TMP DP  RH WIND       PRES   REMARKS
DULUTH         FAIR      52  21  29 SW6       30.43S
INTRNTL FALLS  FAIR      53  21  28 CALM      30.41F
ELY            FAIR      52  10  19 S3        30.41F
CLOQUET        FAIR      54  18  24 W5        30.43F
WHEATON        FAIR      46  32  57 SE8       30.46S
BRAINERD       FAIR      52  28  39 SW8       30.45F
HIBBING        FAIR      53  20  27 NW5       30.41F
ALEXANDRIA     FAIR      49  23  36 S8        30.45F
SAINT CLOUD    FAIR      47  24  40 SW7       30.48F
MINNEAPOLIS    PTSUNNY   48  22  35 CALM      30.50F
$$

  *****  WEATHER ACROSS SOUTH DAKOTA  *****

CITY           SKY/WX    TMP DP  RH WIND       PRES   REMARKS
SIOUX FALLS    CLOUDY    43  31  62 E8        30.41F
BROOKINGS      FAIR      43  32  65 SE12      30.41F
WATERTOWN      FAIR      44  34  67 S12       30.39F
HURON          FAIR      40  30  67 SE10      30.38F
SISSETON         N/A     48  34  58 SE9       30.41F
ABERDEEN       FAIR      48  33  56 SE8       30.38F
MITCHELL       FAIR      40  32  73 SE12      30.38F
PIERRE         FAIR      46  34  62 SE14      30.28F
MOBRIDGE       FAIR      51  33  50 SE16      30.27S
RAPID CITY     FAIR      52  31  44 S15G24    30.14F
$$

  *****  SOME WEATHER IN NEARBY STATES *****

CITY           SKY/WX    TMP DP  RH WIND       PRES   REMARKS
GLASGOW MT     FAIR      52  33  48 SE9       30.14F
GREAT FALLS MT FAIR      54  24  31 SW9       30.13S
CHEYENNE WY    PTSUNNY   47  28  47 SE15G26   29.97F
SCOTTSBLUFF NE CLOUDY    44  33  65 SE23G31   30.08R
OMAHA NE       PTSUNNY   55  30  38 SE15      30.41F
DES MOINES IA  CLOUDY    55  29  36 S6        30.46F
DAVENPORT IA   FAIR      54  21  27 S8        30.53F
CHICAGO IL     FAIR      56  19  23 VRB3      30.51S
EAU CLAIRE WI  FAIR      49  27  42 S3        30.49F
LA CROSSE WI   FAIR      51  20  29 SW5       30.51F
$$

  *****  SOME NATIONAL WEATHER *****

CITY           SKY/WX    TMP DP  RH WIND       PRES   REMARKS
LA GUARDIA NY  FAIR      48  24  39 NW16      30.17S
RALEIGH NC     FAIR      59  25  27 NW10      30.34F
ATLANTA GA     FAIR      60  29  30 E12G21    30.34F
NEW ORLEANS LA PTSUNNY   63  42  46 NE8       30.26F
OKLAHOMA CITY  PTSUNNY   58  35  42 SE20      30.27F
ALBUQUERQUE NM FAIR      54  18  24 SW13G23   29.93S
SALT LAKE CITY PTSUNNY   60  34  37 N14       29.90R
LOS ANGELES CA FAIR      61  48  62 CALM      30.14F
BOISE ID       FAIR      56  31  38 W16G28    30.12S
SEATTLE WA     PTSUNNY   52  39  61 S5        30.25F
$$

*** WEATHER ACROSS MANITOBA...SASKATCHEWAN AND ONTARIO ***
                ***ONTARIO***

CITY           SKY/WX    TMP DP  RH WIND       PRES   REMARKS
GERALDTON      MOSUNNY   55  12  18 CALM      30.37F
THUNDER BAY    PTSUNNY   57  25  28 E10       30.42F
SIOUX LOOKOUT  MOSUNNY   54  14  20 CALM      30.38F
TORONTO        MOSUNNY   41  23  48 N15       30.39S
BIG TROUT LK   SUNNY     45  25  45 S3        30.43F
PICKLE LAKE    MOSUNNY   52  21  30 VRB2      30.38F
DRYDEN         SUNNY     54  21  28 SW6       30.38F
KENORA         PTSUNNY   52  25  35 SW8       30.39S
$$
                *** MANITOBA***

CITY           SKY/WX    TMP DP  RH WIND       PRES   REMARKS
BRANDON        CLOUDY    50  37  62 SE5       30.32F
DAUPHIN        SUNNY     50  36  57 NE5       30.31F
ISLAND LAKE    SUNNY     46  23  39 SE7       30.37F
PILOT MOUND      N/A     52  30  43 S12G18      N/A
THE PAS        SUNNY     45  27  49 SE13      30.26F
THOMPSON       SUNNY     52  21  30 S9G18     30.26F
WINNIPEG       MOSUNNY   55  37  50 S9        30.37F
LYNN LAKE      MOSUNNY   48  23  37 S16G29    30.09F
CHURCHILL      PTSUNNY   45  25  45 SW21G32   30.15F
GILLAM         MOSUNNY   52  23  32 S12G24    30.30F
$$
                ***SASKATCHEWAN***

CITY           SKY/WX    TMP DP  RH WIND       PRES   REMARKS
ESTEVAN        MOSUNNY   54  30  40 SE15      30.23F
KINDERSLEY     PTSUNNY   50  41  71 S8        30.05F
LLOYDMINSTER   MOSUNNY   45  36  70 S7        30.01F
PRINCE ALBERT  PTSUNNY   41  32  70 SW6       30.16F
REGINA         MOSUNNY   45  37  76 SE16      30.20F
YORKTON        SUNNY     41  32  70 SE9G17    30.26F
N. BATTLEFORD  SUNNY     43  36  75 E13       30.07F
LA RONGE       PTSUNNY   52  30  43 S13       30.07S
SASKATOON      MOSUNNY   50  36  57 S13       30.11F
SWIFT CURRENT  PTSUNNY   50  37  62 S21       30.09S
$$
NOTE: THESE ARE AUTOMATED STATIONS WITH LIMITED QUALITY CONTROL
      "FAIR" INDICATES FEW OR NO CLOUDS BELOW 12,000 FEET WITH NO
      SIGNIFICANT WEATHER AND/OR OBSTRUCTIONS TO VISIBILITY.
      SKY/WX - SKY CONDITION AND SIGNIFICANT WEATHER.
      TMP - AIR TEMPERATURE.    DP   - DEWPOINT TEMPERATURE.
      RH  - RELATIVE HUMIDITY.  PRES - PRESSURE.
      HX  - HEAT INDEX.         WCI  - WIND CHILL INDEX.
$




USA.gov is the U.S. government's official web portal to all federal, state and local government web resources and services.